Theta_e
321 321 321 320 319 319 318 318 318 318 318 318 318 317 317 316 316 316 316 316 316 316 316 316 316 317 319 311 309 315 335 332 330 323 321 318 315 315 313 323 328 328 329 333 332 330 331
321 320 320 321 320 319 319 318 318 318 317 318 317 317 316 316 315 315 315 315 315 314 315 315 316 317 314 306 317 328 330 324 327 323 319 319 316 317 320 324 326 326 329 332 330 329 330
322 321 320 320 320 319 319 318 317 317 317 317 317 316 316 315 315 315 314 315 314 314 313 314 316 318 312 310 317 332 328 323 325 321 318 321 319 318 325 323 326 327 324 330 329 329 326
322 322 321 319 319 319 319 318 317 317 316 317 316 316 316 315 314 314 314 314 316 316 315 315 316 317 308 313 319 324 325 319 325 320 320 321 320 321 325 326 321 322 323 319 327 327 328
323 322 322 321 319 319 319 318 317 317 316 317 316 316 315 315 314 313 312 313 316 317 316 317 317 314 306 317 313 320 319 313 319 318 316 317 318 316 323 319 313 320 313 316 322 329 326
323 323 321 321 319 318 319 318 317 317 317 316 316 315 315 315 315 313 312 315 318 318 319 319 318 311 313 311 314 317 319 316 313 313 310 311 312 311 319 317 308 311 312 320 318 324 326
325 323 322 321 320 318 318 319 317 317 316 316 316 315 315 314 314 312 313 321 317 316 316 312 311 310 311 316 318 315 318 313 311 309 304 308 306 305 315 319 313 313 312 319 323 326 324
325 324 322 321 321 319 318 318 317 317 316 317 315 315 315 314 313 312 314 314 314 315 309 314 313 312 314 315 309 315 318 310 308 302 307 306 303 310 318 319 310 315 313 320 325 329 324
324 323 322 321 321 320 317 318 317 317 317 316 315 314 313 313 312 312 316 315 319 319 310 310 312 311 313 315 309 312 315 312 307 304 304 304 306 313 315 313 309 319 316 319 318 324 326
323 322 322 320 320 319 318 317 317 317 317 316 315 314 312 312 309 320 315 318 319 318 306 305 309 311 313 314 307 316 317 312 305 302 305 306 311 310 314 313 312 310 315 320 322 319 312
322 322 321 319 319 318 317 317 316 316 316 316 314 313 311 309 317 316 316 320 320 316 294 306 309 316 314 310 310 310 317 313 305 303 306 305 308 310 311 313 313 310 316 319 320 318 317
322 321 320 319 319 317 317 316 316 316 316 314 313 312 311 313 318 319 320 320 316 302 292 303 308 307 307 309 310 311 312 316 313 307 308 309 315 315 313 315 313 312 315 316 316 316 305
321 321 319 319 319 317 316 316 316 316 315 313 311 310 311 317 318 321 321 316 304 297 305 301 304 306 305 306 307 308 307 307 305 301 300 307 309 312 314 311 313 314 313 304 303 304 304
321 319 318 319 318 316 316 316 316 315 314 312 309 308 312 319 322 320 318 309 296 300 301 307 306 305 302 306 308 307 306 304 308 306 303 301 299 309 311 310 308 310 311 304 298 302 305
320 318 318 318 318 316 316 315 315 315 313 311 308 320 321 324 322 321 313 301 299 301 304 304 305 302 302 304 306 307 306 306 308 308 302 301 302 310 311 312 310 309 307 314 307 310 306
319 318 318 318 317 316 315 315 315 315 313 310 322 323 321 323 323 318 309 298 302 306 306 306 300 303 300 302 303 305 305 309 307 309 311 306 300 307 309 311 311 309 315 307 308 301 300
318 317 318 318 317 316 316 316 315 314 311 310 320 316 322 324 321 313 303 302 303 308 307 304 302 302 304 302 304 303 303 306 308 308 310 309 305 304 308 305 305 306 305 308 309 307 303
317 316 317 318 317 316 316 316 314 313 310 309 318 310 322 322 310 310 304 304 300 305 308 306 305 305 304 305 303 303 301 305 309 310 306 310 306 303 303 309 311 309 307 308 303 304 307
316 316 317 318 317 316 316 315 314 312 310 320 317 315 323 319 305 306 306 304 305 304 306 306 304 305 308 305 301 304 303 308 310 308 308 310 305 300 302 306 309 307 308 309 309 309 307
315 316 316 318 317 317 315 315 313 312 310 317 315 307 313 316 313 307 304 303 301 306 305 307 306 307 306 304 306 301 303 307 309 310 311 311 307 304 298 303 307 305 306 309 308 305 306
314 314 316 317 318 317 315 315 314 312 311 317 318 309 309 307 307 307 307 304 300 300 305 308 306 305 305 303 304 303 303 307 308 309 311 310 304 306 305 307 307 306 306 307 306 308 305
314 314 315 317 318 317 316 315 315 313 310 322 315 313 313 310 307 306 303 302 299 301 303 300 304 305 307 304 304 302 302 305 303 309 310 310 303 306 303 304 307 306 307 307 308 308 309
314 314 314 317 318 317 316 315 315 313 312 322 323 322 314 302 305 305 304 302 302 304 305 305 302 306 304 304 307 307 308 306 305 304 306 306 305 304 300 304 304 303 308 310 311 314 315
315 314 314 315 317 317 316 316 316 315 312 320 322 323 311 304 307 305 303 304 303 305 303 305 304 305 307 311 310 308 308 309 308 307 308 306 305 305 302 303 295 306 312 311 313 316 318
316 315 314 314 316 317 317 316 316 316 314 320 323 321 316 307 309 306 305 304 306 307 306 305 305 309 311 310 306 303 303 303 305 306 306 311 305 299 298 298 301 304 309 308 307 312 318
315 315 314 313 315 317 317 315 316 316 314 319 324 324 320 310 306 308 306 307 307 308 306 307 311 313 311 308 304 297 298 300 299 302 308 306 309 303 299 296 293 304 308 310 311 306 321
315 315 315 314 314 316 317 314 315 316 314 318 325 325 321 312 313 311 309 309 311 308 307 308 309 309 311 307 303 301 301 304 299 298 301 302 303 299 300 298 302 307 308 311 301 304 315
314 314 315 314 313 314 317 314 314 315 315 317 324 328 321 316 314 315 314 311 311 310 305 309 308 308 307 302 303 305 303 306 303 304 302 301 299 300 300 297 294 310 309 306 311 315 316
314 314 315 314 313 314 316 314 314 314 314 314 321 327 325 319 316 319 317 316 315 314 313 312 309 307 309 306 307 307 302 304 302 300 307 301 305 304 303 303 310 311 311 314 316 316 316
Wind_Speed
14 14 14 13 12 11 11 12 11 11 11 10 10 9 8 9 10 10 9 9 8 8 7 8 8 10 9 8 5 4 8 13 16 18 19 16 14 12 9 7 8 5 3 11 12 17 12
14 14 14 13 12 12 12 12 12 12 12 11 10 9 9 9 9 9 8 7 8 7 7 7 8 10 9 9 4 6 7 16 16 17 18 15 11 8 6 7 10 4 7 17 16 12 5
12 14 14 14 13 13 13 12 12 12 12 11 11 9 9 8 8 7 6 7 6 5 5 6 6 8 8 4 4 4 12 14 15 12 15 13 7 10 3 8 4 9 8 13 18 11 6
11 12 13 13 14 13 13 13 12 11 12 11 11 10 8 7 7 7 8 9 8 6 5 5 4 7 6 3 4 5 8 11 13 5 9 8 4 8 10 5 7 12 9 8 14 13 9
10 11 11 12 13 14 12 11 12 11 11 11 11 10 8 8 8 8 8 10 7 6 5 6 8 6 5 5 6 9 9 13 16 9 6 7 7 9 7 12 11 11 8 11 12 18 14
10 11 10 11 13 13 12 11 11 11 10 11 10 10 9 9 7 8 10 6 7 10 8 6 5 7 4 6 8 11 5 13 14 12 9 10 10 11 10 11 12 13 9 15 14 12 17
10 10 12 11 10 12 13 13 11 11 11 11 11 10 9 8 7 7 7 6 8 8 8 7 4 5 4 9 11 9 11 10 12 13 11 12 12 17 18 14 8 7 7 10 12 12 14
12 10 11 12 10 13 14 14 12 11 12 11 11 10 8 7 6 5 7 6 6 6 7 4 5 6 5 3 10 12 13 9 12 14 11 10 15 15 12 8 8 9 10 13 12 17 8
13 12 9 11 12 11 14 14 13 11 11 11 11 10 9 6 4 5 6 6 2 5 7 6 2 2 6 9 9 17 15 7 12 15 16 13 9 9 12 12 10 7 8 13 14 14 9
14 12 9 10 12 11 13 15 13 12 12 13 12 10 8 4 5 1 4 2 4 6 5 7 6 6 7 6 7 15 17 7 7 13 14 11 7 14 15 15 12 11 1 5 13 15 6
14 12 9 11 11 11 14 15 14 12 12 12 13 11 7 7 6 4 5 3 4 6 1 4 6 4 2 7 15 13 16 8 10 10 10 8 11 18 17 14 10 6 5 7 12 4 10
13 12 10 12 11 15 15 15 15 14 13 14 13 10 6 6 5 5 5 3 6 9 7 3 2 1 8 9 7 16 15 12 2 8 14 1 12 13 12 9 10 2 9 6 4 4 8
14 11 12 13 12 15 15 15 15 15 16 17 14 10 7 3 3 1 5 5 8 6 3 4 4 2 4 8 10 16 17 15 10 11 14 8 13 8 8 14 12 13 14 8 9 8 3
13 12 13 14 13 14 16 16 16 16 19 19 16 5 9 5 3 5 6 9 4 3 5 3 3 4 5 4 9 13 15 14 5 12 11 14 15 16 11 14 12 18 18 8 10 10 9
11 13 14 14 13 15 16 16 16 16 18 15 16 4 4 2 2 5 9 2 5 4 5 8 5 6 7 7 4 9 12 12 11 9 9 12 12 18 11 14 10 16 19 16 16 6 11
12 13 14 15 15 16 16 17 17 17 19 15 3 4 4 3 2 7 3 5 4 4 6 4 6 3 5 7 9 9 10 5 7 6 10 3 10 12 16 15 16 15 14 14 10 10 12
14 14 14 15 16 16 17 18 19 20 20 11 5 4 5 2 5 5 4 7 3 5 5 6 6 4 2 3 9 6 4 5 4 11 6 9 10 12 14 16 17 12 13 14 14 14 8
14 14 15 15 15 16 17 18 19 21 21 6 4 3 4 4 4 2 5 5 2 5 2 1 4 5 4 4 1 3 5 8 5 8 11 10 9 8 18 12 12 21 17 17 12 12 12
14 14 15 16 14 17 17 17 18 19 15 6 2 3 3 4 2 3 4 3 4 7 8 6 4 5 3 1 1 2 2 4 8 5 3 5 9 9 9 10 9 14 16 18 20 17 15
14 14 15 16 15 17 17 17 16 16 11 5 4 4 4 2 1 4 1 2 1 4 4 3 6 3 4 4 3 4 2 4 5 5 2 4 5 12 4 13 16 17 11 16 13 13 13
15 15 16 16 15 17 17 16 17 16 12 6 1 4 4 2 4 2 2 2 4 5 2 5 3 7 4 1 9 12 8 10 5 3 1 4 3 5 5 6 4 8 15 15 15 18 13
14 15 15 15 15 15 16 16 17 17 16 5 3 2 3 3 3 4 2 3 4 4 7 4 4 6 6 8 8 2 3 3 4 7 1 5 3 3 6 4 4 9 4 5 4 5 7
12 14 15 15 16 14 16 16 16 17 16 3 2 1 6 4 4 4 3 1 3 0 3 5 5 4 3 7 5 3 2 3 3 6 5 2 6 5 8 0 7 11 7 5 2 1 7
13 11 14 15 16 14 15 15 14 14 13 6 4 4 4 5 4 3 5 3 2 3 3 5 3 5 5 4 2 4 3 2 2 6 2 6 3 7 3 4 11 10 4 4 5 4 3
15 12 12 13 15 14 14 15 14 13 12 5 3 4 3 3 3 7 6 3 4 3 1 4 4 5 5 5 7 6 7 6 5 4 5 0 3 3 6 10 6 5 8 8 8 6 6
14 13 11 12 14 14 11 14 13 12 12 6 3 4 4 2 6 5 6 3 4 1 6 3 3 4 5 4 4 6 2 2 3 7 1 4 1 6 8 3 7 7 5 7 7 4 9
14 12 12 11 12 15 11 13 14 12 11 6 2 4 5 3 5 4 2 2 0 3 3 3 1 4 5 2 2 2 3 3 4 4 0 3 4 6 4 6 9 5 6 3 7 6 10
13 12 11 9 10 13 12 11 13 11 10 7 2 2 6 2 6 2 3 3 4 3 5 6 6 6 4 3 2 2 2 2 3 1 3 4 4 3 3 5 4 9 2 5 7 6 9
13 12 11 9 9 11 12 11 11 11 9 8 4 1 3 5 8 3 7 4 4 6 4 3 5 2 4 1 1 2 3 3 2 3 2 3 5 5 5 6 5 6 8 6 8 8 6
Wind_Direction
0 358 360 2 1 357 355 357 356 354 349 347 343 337 332 329 324 321 317 311 307 307 302 302 302 303 272 219 253 52 111 153 171 189 186 187 192 211 206 198 171 240 142 74 149 145 145
358 354 356 0 359 352 351 356 358 356 353 348 343 341 339 338 335 328 321 316 313 309 303 294 292 292 251 242 39 347 168 167 170 192 188 193 206 213 220 204 219 146 145 118 147 133 120
356 357 355 354 357 353 350 353 357 355 353 348 346 343 339 339 332 323 314 313 298 293 291 284 277 265 251 292 4 53 152 173 167 193 176 188 225 214 204 180 146 143 153 129 148 148 121
353 354 354 353 349 351 350 349 345 349 350 347 347 344 339 335 328 322 314 307 296 265 240 247 251 251 267 108 10 158 156 156 168 147 206 175 210 233 254 74 187 184 173 180 150 152 162
350 350 350 351 349 345 345 340 341 344 342 345 345 342 335 327 328 323 312 299 262 235 217 193 221 253 122 139 193 138 156 161 168 157 134 190 227 222 191 214 191 197 183 149 138 186 157
342 339 353 348 349 343 335 338 344 336 335 341 340 338 340 330 319 322 317 278 159 173 199 204 257 238 197 99 129 144 149 158 165 153 148 188 210 206 213 214 202 187 214 163 149 161 168
323 335 338 345 345 342 336 339 340 337 334 335 337 340 331 323 323 323 277 195 207 177 201 302 355 308 104 95 147 164 150 158 176 187 185 192 210 207 193 214 1 301 234 150 136 152 150
332 321 334 332 335 341 341 336 334 336 333 332 339 336 331 319 312 314 267 271 29 357 305 193 259 255 252 309 151 156 174 162 183 191 182 174 220 204 201 198 241 224 217 113 123 150 158
336 330 323 335 335 340 341 331 331 335 324 333 336 335 332 317 305 226 260 278 7 313 264 123 153 177 150 202 171 168 199 160 191 199 204 209 188 174 207 199 209 219 208 157 151 166 182
336 330 332 337 335 341 338 330 332 334 323 335 331 330 329 323 237 125 233 120 250 288 232 94 147 121 154 220 162 158 201 189 188 204 211 238 128 182 208 207 219 173 247 148 147 180 177
338 338 348 343 343 344 335 329 329 329 326 329 326 327 319 255 335 243 49 295 301 222 298 44 83 94 177 236 126 176 197 208 197 189 200 182 186 192 201 210 210 71 173 174 178 225 148
345 349 355 343 339 349 335 329 328 329 329 335 327 324 311 194 224 290 289 302 228 230 80 86 76 321 193 203 169 145 186 240 341 204 218 13 210 200 193 178 204 189 171 169 173 259 230
352 3 347 340 340 349 337 331 329 329 333 332 325 297 237 283 29 359 286 234 234 33 167 36 1 316 289 167 157 174 187 193 194 198 188 177 190 189 216 199 196 210 180 175 198 201 256
354 359 343 341 341 346 338 332 328 330 338 333 325 293 181 275 284 280 241 245 47 34 29 10 318 269 250 192 153 182 188 197 212 247 182 198 179 197 195 218 187 211 212 216 206 209 208
358 354 341 339 345 342 338 332 329 331 338 334 313 186 190 82 201 219 251 339 25 25 4 343 258 276 163 186 267 177 196 209 192 228 249 206 223 178 202 216 219 190 226 239 276 255 259
353 348 341 339 347 342 340 334 332 333 339 335 264 216 71 139 251 247 258 73 78 6 333 299 351 340 296 183 216 214 167 219 218 201 274 174 223 193 198 215 214 238 196 210 241 217 231
351 346 340 339 349 342 343 337 335 336 338 331 229 207 95 286 262 245 57 62 24 60 344 324 356 330 343 274 269 165 98 96 226 183 247 244 263 160 187 204 195 194 225 222 248 240 259
349 343 337 338 346 343 345 341 338 341 336 275 284 185 103 282 222 355 65 13 286 20 63 324 291 14 354 327 275 174 323 10 350 260 214 221 250 194 198 197 245 203 215 203 230 188 259
347 344 336 336 345 345 346 343 342 348 352 315 291 78 133 274 296 124 133 122 360 10 33 4 9 9 1 91 95 16 121 17 352 222 295 193 236 210 166 185 204 231 214 231 216 246 219
343 343 337 336 344 343 347 345 344 347 345 287 262 186 141 121 11 312 285 60 34 65 50 8 0 230 202 171 164 219 312 22 6 56 10 236 278 276 269 193 186 203 207 224 242 229 235
341 340 336 334 340 343 346 346 346 345 339 278 294 72 9 140 109 102 283 326 340 359 1 13 88 24 350 101 155 151 228 305 146 120 72 315 268 250 75 79 158 201 200 200 226 243 267
340 336 335 333 336 344 344 348 350 345 341 257 296 222 165 102 152 241 143 43 44 77 356 43 27 32 43 70 15 73 336 350 359 315 283 7 124 237 115 108 143 131 158 199 228 250 262
334 337 333 334 333 343 343 349 350 351 335 340 93 165 283 155 185 270 46 106 70 275 80 40 340 285 99 40 354 16 172 111 108 271 324 141 333 251 134 135 178 144 37 51 139 171 324
320 330 334 332 331 342 341 347 352 358 1 312 18 291 259 144 232 107 156 153 125 47 15 33 354 272 47 315 198 236 164 172 60 79 99 245 167 304 193 272 209 57 37 1 8 36 344
323 318 332 328 325 335 342 341 350 355 356 300 350 287 274 185 127 160 173 154 183 169 239 14 65 14 308 254 242 192 189 208 133 52 56 355 167 271 276 187 296 161 44 22 357 75 9
315 317 317 322 322 328 342 337 346 353 353 289 340 302 285 243 193 130 162 198 278 254 175 126 120 321 279 277 234 249 234 7 208 165 117 93 302 259 220 227 220 31 10 340 317 161 21
312 310 308 316 319 320 333 338 342 350 353 307 346 305 272 251 124 188 198 31 13 264 285 140 61 212 254 215 154 264 184 325 254 256 249 214 252 260 177 248 103 37 315 323 246 42 346
305 304 300 301 314 315 320 336 335 341 355 320 28 346 292 289 115 184 131 157 177 243 284 94 222 189 210 223 228 137 237 121 249 335 335 285 281 233 266 260 181 1 188 327 2 330 348
300 295 293 285 302 309 313 327 331 331 351 329 256 130 296 288 78 76 70 48 11 1 314 169 355 16 26 164 188 166 188 191 218 215 172 237 344 351 333 42 78 49 54 32 2 342 354